Change the Weather History Date:

Monday, March 11, 2013

  Actual Average Record
Temperature  
Mean Temperature 46 °F 46 °F  
Max Temperature 64 °F 59 °F 79 °F (1989)
Min Temperature 28 °F 32 °F 17 °F (1948)
Degree Days  
Heating Degree Days 19    
Month to date heating degree days  
Since 1 July heating degree days  
Cooling Degree Days 0    
Month to date cooling degree days  
Year to date cooling degree days  
Moisture  
Dew Point 22 °F    
Average Humidity 46    
Maximum Humidity 75    
Minimum Humidity 16    
Precipitation  
Precipitation 0.00 in 0.04 in 0.89 in (1982)
Month to date precipitation 0.45  
Year to date precipitation 2.96  
Sea Level Pressure  
Sea Level Pressure 30.11 in    
Wind  
Wind Speed 5 mph (SSW)    
Max Wind Speed 13 mph    
Max Gust Speed -    
Visibility 10 miles    
Events      
T = Trace of Precipitation, MM = Missing Value Source: NWS Daily Summary

Daily Weather History Graph

Daily Weather History Graph

Search for Another Location

Airport or City:

Trip Planner

Search our weather history database for the weather conditions in past years. The results will help you decide how hot, cold, wet, or windy it might be!

Date:

Astronomy

Mar. 11, 2013 Rise Set
Actual Time 6:45 AM MST 6:34 PM MST
Civil Twilight 6:20 AM MST 6:59 PM MST
Nautical Twilight 5:50 AM MST 7:28 PM MST
Astronomical Twilight 5:21 AM MST 7:58 PM MST
Moon 6:22 AM MST (3/11) 6:47 PM MST (3/11)
Length of Visible Light 12h 39m
Length of Day
11h 49m
Waning Crescent, 0% of the Moon is Illuminated
Mar 11
Waning Crescent
Mar 11
New
Mar 19
First Quarter
Mar 27
Full
Apr 2
Last Quarter

Hourly Weather History & Observations

Time (MST) Temp. Windchill Dew Point Humidity Pressure Visibility Wind Dir Wind Speed Gust Speed Precip Events Conditions
12:53 AM 33.1 °F 27.7 °F 24.1 °F 70% 30.17 in 10.0 mi SSW 5.8 mph - N/A   Clear
1:53 AM 30.0 °F 26.5 °F 23.0 °F 75% 30.17 in 10.0 mi South 3.5 mph - N/A   Clear
2:53 AM 30.0 °F 23.2 °F 23.0 °F 75% 30.15 in 10.0 mi SSW 6.9 mph - N/A   Clear
3:53 AM 28.9 °F 22.8 °F 21.9 °F 75% 30.14 in 10.0 mi South 5.8 mph - N/A   Clear
4:53 AM 28.0 °F 22.8 °F 21.0 °F 75% 30.16 in 10.0 mi South 4.6 mph - N/A   Clear
5:53 AM 28.0 °F 21.7 °F 19.9 °F 72% 30.16 in 10.0 mi South 5.8 mph - N/A   Clear
6:53 AM 28.9 °F 21.1 °F 19.9 °F 69% 30.17 in 10.0 mi South 8.1 mph - N/A   Clear
7:53 AM 33.1 °F 27.7 °F 21.9 °F 64% 30.18 in 10.0 mi South 5.8 mph - N/A   Clear
8:53 AM 43.0 °F - 24.1 °F 47% 30.18 in 10.0 mi Calm Calm - N/A   Clear
9:53 AM 46.9 °F - 25.0 °F 42% 30.17 in 10.0 mi North 5.8 mph - N/A   Clear
10:53 AM 52.0 °F - 23.0 °F 32% 30.16 in 10.0 mi North 5.8 mph - N/A   Clear
11:53 AM 55.9 °F - 18.0 °F 23% 30.14 in 10.0 mi NNW 9.2 mph - N/A   Clear
12:53 PM 60.1 °F - 17.1 °F 19% 30.10 in 10.0 mi North 9.2 mph - N/A   Clear
1:53 PM 61.0 °F - 14.0 °F 16% 30.07 in 10.0 mi ENE 4.6 mph - N/A   Clear
2:53 PM 63.0 °F - 15.1 °F 16% 30.05 in 10.0 mi Calm Calm - N/A   Clear
3:53 PM 64.0 °F - 19.9 °F 18% 30.03 in 10.0 mi Variable 5.8 mph - N/A   Clear
4:53 PM 64.0 °F - 21.0 °F 19% 30.02 in 10.0 mi SW 6.9 mph - N/A   Clear
5:53 PM 61.0 °F - 23.0 °F 23% 30.03 in 10.0 mi WSW 12.7 mph - N/A   Clear
6:53 PM 55.0 °F - 25.0 °F 31% 30.05 in 10.0 mi West 10.4 mph - N/A   Clear
7:53 PM 53.1 °F - 25.0 °F 34% 30.06 in 10.0 mi SSE 4.6 mph - N/A   Clear
9:53 PM 43.0 °F - 27.0 °F 53% 30.07 in 10.0 mi Calm Calm - N/A   Clear
10:53 PM 42.1 °F - 27.0 °F 55% 30.08 in 10.0 mi Calm Calm - N/A   Clear
11:53 PM 39.0 °F 36.8 °F 25.0 °F 57% 30.07 in 10.0 mi SW 3.5 mph - N/A   Clear